Regional Weather Roundup
Issued by NWS

Home | Current Version | Previous Version | Graphics & Text | Print | Product List | Glossary Off
Versions: 1 2 3 4 5 6 7 8 9 10 11 12 13 14 15 16 17 18 19 20 21 22 23 24 25 26 27 28 29 30 31 32 33 34 35 36 37 38 39 40 41 42 43 44 45 46 47 48 49 50

000
ASUS43 KLOT 171010
RWRIL

ILLINOIS REGIONAL WEATHER ROUNDUP
NATIONAL WEATHER SERVICE CHICAGO/ROMEOVILLE IL
500 AM CDT WED SEP 17 2014

NOTE: "FAIR" INDICATES FEW OR NO CLOUDS BELOW 12,000 FEET WITH NO
SIGNIFICANT WEATHER AND/OR OBSTRUCTIONS TO VISIBILITY.

* THESE STATIONS ARE NOT UNDER NWS QUALITY CONTROL. THEY ALSO MAY NOT
  REPORT WEATHER SUCH AS PRECIPITATION OR FOG.

ILZ001-002-007-009-015-016-024-171100-
NORTHWEST ILLINOIS

CITY           SKY/WX    TMP DP  RH WIND       PRES   REMARKS
MOLINE         PTCLDY    46  43  89 CALM      30.04S
STERLING*      PTCLDY    43  37  81 CALM      30.05S
SAVANNA*       PTCLDY    42  41  94 NE3       30.04S FOG
$$

ILZ003-004-008-010-011-017-018-171100-
NORTH CENTRAL ILLINOIS

CITY           SKY/WX    TMP DP  RH WIND       PRES   REMARKS
ROCKFORD       CLEAR     43  40  89 CALM      30.06F
FREEPORT*      CLEAR     41  39  93 CALM      30.06S
ROCHELLE*      CLEAR     40  38  96 CALM      30.05S
DE KALB*       CLEAR     42  39  89 CALM      30.05F
PERU*          CLEAR     45  43  92 S3        30.06S
$$

ILZ005-006-012>014-019>023-171100-
NORTHEAST ILLINOIS

CITY           SKY/WX    TMP DP  RH WIND       PRES   REMARKS
CHICAGO-OHARE  PTCLDY    50  44  80 CALM      30.04F
CHICAGO-MIDWAY PTCLDY    51  46  83 S3        30.05F
AURORA         CLEAR     41  38  89 CALM      30.05F
LANSING*       FOG       42  42  99 CALM      30.05F VSB 1/4
JOLIET*        FOG       44  43  97 CALM      30.06F VSB<1/4
WAUKEGAN       CLEAR     44  43  96 CALM      30.03F FOG
DUPAGE AIRPORT CLEAR     43  41  93 CALM      30.04F FOG
KANKAKEE*      FOG       42  42  99 CALM      30.06F VSB 1/2
WHEELING       CLEAR     46  42  86 CALM      30.05F
MORRIS*        CLEAR     43  43 100 CALM      30.05S
ROMEOVILLE*    FOG       42  42 100 S3        30.06S VSB 1/2
NORTHERLY ISL    N/A     53  45  74 S1          N/A
$$

LMZ740>746-171100-
SOUTHERN LAKE MICHIGAN

STATION/POSITION SKY/WX   TEMP    WIND        PRES    VSBY  WAVE
                          AIR SEA DIR/SP/G                  HT/PER
                          (F)     (DEG/KT/KT) (MB)    (MI)  (FT/S)
SOUTHERN BUOY              61 64  220/  8/ 10 1017.3F         1
WAUKEGAN HARBOR            53     240/  8/ 10   N/A
HARRISON CRIB              55     180/  9/ 10   N/A
BURNHAM HARBOR             53      CALM  /  5   N/A
CALUMET HARBOR             52     180/  4/  6 1016.4F
MICHIGAN CITY              50     130/ 10/ 12   N/A
MICHIGAN CITY 6N           55 64  160/ 12/ 14   N/A           1/ 2
ST. JOSEPH                 58 66  140/  8/ 10   N/A           1/ 2
$$

ILZ025>027-034>036-040-047-049-050-058-095>099-171100-
WEST-CENTRAL ILLINOIS

CITY           SKY/WX    TMP DP  RH WIND       PRES   REMARKS
QUINCY         MOCLDY    54  50  86 S9        30.01F
GALESBURG*     PTCLDY    46  46  97 CALM      30.04S
MACOMB*        PTCLDY    43  43 100 CALM      30.06F
JACKSONVILLE*  CLEAR     50  49  95 S3        30.06S
PITTSFIELD*    PTCLDY    50  49  94 CALM      30.05F FOG
$$

ILZ028>032-037-038-041>044-048-051>054-059>061-171100-
CENTRAL ILLINOIS

CITY           SKY/WX    TMP DP  RH WIND       PRES   REMARKS
PONTIAC        CLEAR     45  43  93 CALM      30.05S
DECATUR        CLEAR     45  44  97 CALM      30.07S
PEORIA         PTCLDY    49  46  90 CALM      30.05F
LACON*         PTCLDY    44  43  97 CALM      30.05S
LINCOLN*       PTCLDY    46  44  95 CALM      30.05S
SPRINGFIELD    CLEAR     46  44  93 CALM      30.06S
TAYLORVILLE    CLEAR     45  45 100 S3        30.06S FOG
$$

ILZ033-039-045-046-055>057-062-063-171100-
EAST-CENTRAL ILLINOIS

CITY           SKY/WX    TMP DP  RH WIND       PRES   REMARKS
CHAMPAIGN      CLEAR     47  45  93 W5        30.06F
DANVILLE*      FOG       43  43 100 CALM      30.04S VSB 1
RANTOUL*       FOG       47  44  90 CALM      30.07S VSB 1/2
MATTOON        CLEAR     48  45  89 CALM      30.06S
PARIS*         CLEAR     43  43 100 CALM      30.08S FOG
$$

ILZ079-100>102-171100-
SOUTHWEST ILLINOIS

CITY           SKY/WX    TMP DP  RH WIND       PRES   REMARKS
BELLEVILLE     CLEAR     46  46  99 CALM      30.06S
CAHOKIA*       CLEAR     49  48  97 S3        30.06F FOG
SPARTA*          N/A     47  46  98 CALM      30.07F FOG
$$

ILZ064>066-069>071-074>076-080>082-084>086-088>090-092>094-171100-
SOUTH-CENTRAL ILLINOIS

CITY           SKY/WX    TMP DP  RH WIND       PRES   REMARKS
CARBONDALE     PTCLDY    44  43  96 CALM      30.07F FOG
CAIRO*         FOG       48  46  93 CALM      30.06F VSB 1
EFFINGHAM*     FOG       45  42  92 CALM      30.07F VSB<1/4
MARION         FOG       46  46 100 CALM      30.07F VSB 1/4
MT. VERNON     CLEAR     43  39  87 CALM      30.07F
CENTRALIA*       N/A     44  42  94 CALM      30.06F FOG
SALEM*         FOG       47  47 100 CALM      30.06F VSB 3/4
METROPOLIS*    CLEAR     47  47 100 CALM      30.06F FOG
$$

ILZ067-068-072-073-078-083-087-091-171100-
SOUTHEAST ILLINOIS

CITY           SKY/WX    TMP DP  RH WIND       PRES   REMARKS
LAWRENCEVILLE  FOG       45  44  97 CALM      30.08F VSB 1/4
FLORA*         FOG       42  42 100 CALM      30.08S VSB 1/2
FAIRFIELD*     FOG      N/A N/A N/A CALM      30.07S VSB 3/4
HARRISBURG*    FOG       45  45 100 CALM      30.08F VSB 1/4
ROBINSON*      FOG       44  44 100 CALM      30.09F VSB 3/4
CARMI*         FOG       46  46 100 CALM      30.07F VSB 1/4
$$

ABBREVIATIONS USED IN REMARKS
   TC - TEMPERATURE IN CELSIUS
  WCI - WIND CHILL INDEX
   HX - HEAT INDEX
  VSB - VISIBILITY
$$



USA.gov is the U.S. government's official web portal to all federal, state and local government web resources and services.